Change the Weather History Date:

Saturday, September 3, 2011

  Actual Average Record
Temperature  
Mean Temperature 87 °F 82 °F  
Max Temperature 101 °F 94 °F 108 °F (2000)
Min Temperature 73 °F 71 °F 59 °F (1987)
Degree Days  
Heating Degree Days 0 0  
Month to date heating degree days 0 0  
Since 1 July heating degree days 0 0  
Cooling Degree Days 22 17  
Month to date cooling degree days 72 52  
Year to date cooling degree days 3188 2247  
Growing Degree Days 36 (Base 50)    
Moisture  
Dew Point 57 °F    
Average Humidity 44    
Maximum Humidity 73    
Minimum Humidity 15    
Precipitation  
Precipitation 0.00 in 0.10 in 1.23 in (1942)
Month to date precipitation 0.00 0.30  
Year to date precipitation 11.11 22.46  
Sea Level Pressure  
Sea Level Pressure 29.76 in    
Wind  
Wind Speed 10 mph (NE)    
Max Wind Speed 24 mph    
Max Gust Speed 32 mph    
Visibility 10 miles    
Events      
T = Trace of Precipitation, MM = Missing Value Source: NWS Daily Summary

Daily Weather History Graph

Daily Weather History Graph

Search for Another Location

Airport or City:

Trip Planner

Search our weather history database for the weather conditions in past years. The results will help you decide how hot, cold, wet, or windy it might be!

Date:

Astronomy

Sep. 03, 2011 Rise Set
Actual Time 7:05 AM CDT 7:50 PM CDT
Civil Twilight 6:40 AM CDT 8:15 PM CDT
Nautical Twilight 6:11 AM CDT 8:44 PM CDT
Astronomical Twilight 5:41 AM CDT 9:13 PM CDT
Moon 1:18 PM CDT (9/3) 11:46 PM CDT (9/3)
Length of Visible Light 13h 34m
Length of Day
12h 44m
Waxing Crescent, 39% of the Moon is Illuminated
Sep 3
Waxing Crescent
Sep 4
First Quarter
Sep 12
Full
Sep 20
Last Quarter
Sep 27
New

Hourly Weather History & Observations

Time (CDT) Temp. Heat Index Dew Point Humidity Pressure Visibility Wind Dir Wind Speed Gust Speed Precip Events Conditions
12:51 AM 86.0 °F 87.6 °F 64.9 °F 49% 29.81 in 10.0 mi SE 11.5 mph - N/A   Clear
1:51 AM 84.2 °F 86.6 °F 66.2 °F 55% 29.83 in 10.0 mi SSE 9.2 mph - N/A   Clear
2:51 AM 82.0 °F 83.8 °F 64.9 °F 56% 29.81 in 10.0 mi SSE 6.9 mph - N/A   Clear
3:51 AM 81.0 °F 82.7 °F 64.9 °F 58% 29.80 in 10.0 mi SE 5.8 mph - N/A   Clear
4:51 AM 79.0 °F - 64.9 °F 62% 29.80 in 10.0 mi Calm Calm - N/A   Clear
5:51 AM 75.0 °F - 64.0 °F 69% 29.79 in 10.0 mi NNW 3.5 mph - N/A   Clear
6:51 AM 73.9 °F - 64.0 °F 71% 29.79 in 10.0 mi North 3.5 mph - N/A   Clear
7:51 AM 75.2 °F - 64.4 °F 69% 29.83 in 10.0 mi North 4.6 mph - N/A   Clear
8:51 AM 82.0 °F 84.1 °F 66.0 °F 58% 29.81 in 10.0 mi North 4.6 mph - N/A   Clear
9:51 AM 88.0 °F 88.7 °F 63.0 °F 43% 29.81 in 10.0 mi NNE 5.8 mph - N/A   Clear
10:51 AM 91.9 °F 91.2 °F 59.0 °F 33% 29.80 in 10.0 mi NE 12.7 mph - N/A   Clear
11:51 AM 95.0 °F 93.7 °F 57.0 °F 28% 29.78 in 10.0 mi North 13.8 mph 19.6 mph N/A   Clear
12:51 PM 97.0 °F 95.3 °F 55.9 °F 25% 29.76 in 10.0 mi NNE 15.0 mph 25.3 mph N/A   Clear
1:51 PM 98.1 °F 96.4 °F 55.0 °F 24% 29.73 in 10.0 mi NNE 13.8 mph 24.2 mph N/A   Clear
2:51 PM 99.0 °F 96.5 °F 53.1 °F 21% 29.71 in 10.0 mi North 17.3 mph 26.5 mph N/A   Clear
3:51 PM 100.0 °F 97.9 °F 53.1 °F 21% 29.68 in 10.0 mi ENE 18.4 mph 27.6 mph N/A   Clear
4:51 PM 100.9 °F - 51.1 °F 19% 29.67 in 10.0 mi NNE 18.4 mph 24.2 mph N/A   Clear
5:51 PM 100.0 °F - 51.1 °F 19% 29.66 in 10.0 mi NE 20.7 mph 28.8 mph N/A   Clear
6:51 PM 96.1 °F - 51.1 °F 22% 29.67 in 10.0 mi NNE 15.0 mph - N/A   Clear
7:51 PM 93.2 °F - 39.2 °F 15% 29.70 in 10.0 mi ENE 11.5 mph - N/A   Clear
8:51 PM 89.1 °F - 41.0 °F 19% 29.70 in 10.0 mi NE 10.4 mph - N/A   Clear
9:51 PM 86.0 °F - 46.0 °F 25% 29.72 in 10.0 mi NE 9.2 mph - N/A   Clear
10:51 PM 84.9 °F 83.2 °F 53.1 °F 33% 29.73 in 10.0 mi NE 9.2 mph - N/A   Clear
11:51 PM 84.9 °F 83.9 °F 57.0 °F 38% 29.73 in 10.0 mi NE 11.5 mph - N/A   Clear